TimeEST,TemperatureF,Dew PointF,Humidity,Sea Level PressureIn,VisibilityMPH,Wind Direction,Wind SpeedMPH,Gust SpeedMPH,PrecipitationIn,Events,Conditions,WindDirDegrees,DateUTC
12:15 AM,37.4,32.0,81,30.19,10.0,Calm,Calm,-,N/A,,Clear,0,2013-03-05 05:15:00
12:35 AM,39.2,32.0,75,30.18,10.0,Calm,Calm,-,N/A,,Clear,0,2013-03-05 05:35:00
12:55 AM,39.2,32.0,75,30.18,10.0,Calm,Calm,-,N/A,,Clear,0,2013-03-05 05:55:00
1:35 AM,35.6,32.0,87,30.17,10.0,Calm,Calm,-,N/A,,Clear,0,2013-03-05 06:35:00
1:55 AM,35.6,32.0,87,30.16,5.0,Calm,Calm,-,N/A,,Clear,0,2013-03-05 06:55:00
2:15 AM,35.6,32.0,87,30.16,7.0,Calm,Calm,-,N/A,,Clear,0,2013-03-05 07:15:00
2:35 AM,35.6,32.0,87,30.16,7.0,Calm,Calm,-,N/A,,Clear,0,2013-03-05 07:35:00
2:55 AM,35.6,32.0,87,30.16,5.0,Calm,Calm,-,N/A,,Haze,0,2013-03-05 07:55:00
3:15 AM,33.8,32.0,93,30.16,5.0,Calm,Calm,-,N/A,,Clear,0,2013-03-05 08:15:00
3:55 AM,35.6,32.0,87,30.15,7.0,Calm,Calm,-,N/A,,Clear,0,2013-03-05 08:55:00
4:15 AM,35.6,32.0,87,30.15,10.0,Calm,Calm,-,N/A,,Clear,0,2013-03-05 09:15:00
4:35 AM,35.6,32.0,87,30.16,10.0,Calm,Calm,-,N/A,,Clear,0,2013-03-05 09:35:00
4:55 AM,33.8,32.0,93,30.16,5.0,Calm,Calm,-,N/A,,Clear,0,2013-03-05 09:55:00
5:15 AM,33.8,32.0,93,30.16,5.0,Calm,Calm,-,N/A,,Clear,0,2013-03-05 10:15:00
5:35 AM,33.8,32.0,93,30.17,7.0,Calm,Calm,-,N/A,,Clear,0,2013-03-05 10:35:00
5:55 AM,33.8,32.0,93,30.18,10.0,Calm,Calm,-,N/A,,Clear,0,2013-03-05 10:55:00
6:15 AM,35.6,33.8,93,30.18,10.0,Calm,Calm,-,N/A,,Clear,0,2013-03-05 11:15:00
6:35 AM,35.6,33.8,93,30.18,10.0,Calm,Calm,-,N/A,,Clear,0,2013-03-05 11:35:00
7:35 AM,37.4,35.6,93,30.19,7.0,Calm,Calm,-,N/A,,Clear,0,2013-03-05 12:35:00
8:15 AM,48.2,42.8,82,30.20,10.0,South,4.6,-,N/A,,Clear,180,2013-03-05 13:15:00
8:35 AM,51.8,41.0,67,30.20,10.0,South,6.9,-,N/A,,Clear,180,2013-03-05 13:35:00
8:55 AM,55.4,39.2,54,30.21,10.0,SSW,4.6,-,N/A,,Clear,210,2013-03-05 13:55:00
9:15 AM,59.0,39.2,48,30.21,10.0,South,5.8,-,N/A,,Clear,190,2013-03-05 14:15:00
9:35 AM,60.8,41.0,48,30.21,10.0,SW,3.5,-,N/A,,Clear,230,2013-03-05 14:35:00
9:55 AM,62.6,44.6,52,30.20,10.0,SW,5.8,-,N/A,,Clear,230,2013-03-05 14:55:00
10:15 AM,64.4,44.6,49,30.21,10.0,SW,4.6,-,N/A,,Clear,220,2013-03-05 15:15:00
10:35 AM,64.4,44.6,49,30.20,10.0,SW,8.1,-,N/A,,Clear,220,2013-03-05 15:35:00
10:55 AM,68.0,44.6,43,30.20,10.0,SW,6.9,-,N/A,,Clear,230,2013-03-05 15:55:00
11:15 AM,68.0,42.8,40,30.19,10.0,SW,10.4,16.1,N/A,,Clear,230,2013-03-05 16:15:00
11:35 AM,69.8,44.6,40,30.19,10.0,SW,5.8,-,N/A,,Clear,220,2013-03-05 16:35:00
11:55 AM,69.8,44.6,40,30.19,10.0,SW,11.5,16.1,N/A,,Clear,220,2013-03-05 16:55:00
12:15 PM,71.6,42.8,35,30.18,10.0,WSW,12.7,-,N/A,,Clear,250,2013-03-05 17:15:00
12:35 PM,71.6,44.6,38,30.17,10.0,WSW,10.4,16.1,N/A,,Clear,240,2013-03-05 17:35:00
12:55 PM,71.6,42.8,35,30.15,10.0,SW,9.2,16.1,N/A,,Clear,220,2013-03-05 17:55:00
1:15 PM,71.6,42.8,35,30.14,10.0,South,10.4,-,N/A,,Clear,190,2013-03-05 18:15:00
1:35 PM,73.4,44.6,36,30.13,10.0,WSW,10.4,17.3,N/A,,Clear,250,2013-03-05 18:35:00
1:55 PM,73.4,46.4,38,30.13,10.0,WSW,6.9,16.1,N/A,,Clear,240,2013-03-05 18:55:00
2:15 PM,73.4,44.6,36,30.12,10.0,West,10.4,18.4,N/A,,Clear,280,2013-03-05 19:15:00
2:35 PM,73.4,41.0,31,30.11,10.0,WSW,11.5,16.1,N/A,,Clear,250,2013-03-05 19:35:00
2:55 PM,73.4,41.0,31,30.11,10.0,SW,10.4,19.6,N/A,,Clear,230,2013-03-05 19:55:00
3:15 PM,73.4,42.8,33,30.11,10.0,WSW,12.7,20.7,N/A,,Clear,250,2013-03-05 20:15:00
3:35 PM,73.4,39.2,29,30.11,10.0,WSW,15.0,20.7,N/A,,Clear,250,2013-03-05 20:35:00
3:55 PM,73.4,39.2,29,30.11,10.0,WSW,10.4,-,N/A,,Clear,250,2013-03-05 20:55:00
4:15 PM,73.4,37.4,27,30.11,10.0,WSW,17.3,-,N/A,,Clear,250,2013-03-05 21:15:00
4:35 PM,73.4,39.2,29,30.11,10.0,SW,13.8,-,N/A,,Clear,230,2013-03-05 21:35:00
4:55 PM,71.6,37.4,29,30.11,10.0,WSW,12.7,17.3,N/A,,Clear,250,2013-03-05 21:55:00
5:15 PM,71.6,37.4,29,30.10,10.0,WSW,13.8,17.3,N/A,,Clear,240,2013-03-05 22:15:00
5:35 PM,69.8,39.2,33,30.10,10.0,SW,10.4,-,N/A,,Clear,220,2013-03-05 22:35:00
5:55 PM,69.8,37.4,31,30.10,10.0,SW,10.4,-,N/A,,Clear,220,2013-03-05 22:55:00
6:15 PM,68.0,41.0,37,30.10,10.0,SW,11.5,-,N/A,,Clear,220,2013-03-05 23:15:00
6:35 PM,64.4,41.0,42,30.10,10.0,SW,8.1,-,N/A,,Clear,220,2013-03-05 23:35:00
6:55 PM,62.6,42.8,48,30.09,10.0,SSW,5.8,-,N/A,,Clear,200,2013-03-05 23:55:00
7:15 PM,62.6,48.2,59,30.10,10.0,SSW,6.9,-,N/A,,Clear,210,2013-03-06 00:15:00
7:35 PM,60.8,50.0,68,30.09,10.0,SSW,5.8,-,N/A,,Clear,200,2013-03-06 00:35:00
7:55 PM,60.8,51.8,72,30.09,10.0,SSW,5.8,-,N/A,,Clear,200,2013-03-06 00:55:00
8:15 PM,59.0,51.8,77,30.08,10.0,South,6.9,-,N/A,,Clear,180,2013-03-06 01:15:00
8:35 PM,59.0,53.6,82,30.07,10.0,South,5.8,-,N/A,,Clear,180,2013-03-06 01:35:00
8:55 PM,59.0,53.6,82,30.08,10.0,South,4.6,-,N/A,,Clear,190,2013-03-06 01:55:00
9:15 PM,59.0,53.6,82,30.07,10.0,South,4.6,-,N/A,,Clear,190,2013-03-06 02:15:00
9:35 PM,59.0,55.4,88,30.07,10.0,South,5.8,-,N/A,,Clear,180,2013-03-06 02:35:00
9:55 PM,59.0,55.4,88,30.07,10.0,South,5.8,-,N/A,,Clear,190,2013-03-06 02:55:00
10:15 PM,59.0,55.4,88,30.07,10.0,SSW,5.8,-,N/A,,Clear,200,2013-03-06 03:15:00
10:35 PM,59.0,57.2,94,30.07,10.0,SSW,6.9,-,N/A,,Mostly Cloudy,210,2013-03-06 03:35:00
10:55 PM,60.8,59.0,94,30.07,10.0,SSW,9.2,-,N/A,,Mostly Cloudy,210,2013-03-06 03:55:00
11:15 PM,60.8,59.0,94,30.06,10.0,SSW,6.9,-,N/A,,Scattered Clouds,210,2013-03-06 04:15:00
11:35 PM,60.8,59.0,94,30.06,10.0,SSW,9.2,-,N/A,,Scattered Clouds,210,2013-03-06 04:35:00
11:55 PM,60.8,59.0,94,30.05,10.0,SSW,8.1,-,N/A,,Clear,210,2013-03-06 04:55:00